GFSSW_sfc_thetae_057.txt.gz
Theta_e
323 323 322 322 321 320 319 319 318 317 317 318 318 318 318 317 314 310 303 310 313 319 320 310 308 307 307 303 302 300 297 292 293 294 298 311 309 313 316 315 319 320 319 324 326
324 324 324 323 321 319 319 318 317 317 317 318 317 318 317 317 309 304 314 319 321 322 309 305 303 305 303 301 301 300 295 295 298 299 299 309 310 310 311 314 314 315 323 324 323
325 324 324 323 321 320 319 317 317 317 317 317 317 318 317 315 302 302 326 322 323 322 309 307 305 304 301 301 299 296 296 298 299 300 302 306 309 311 310 310 315 314 317 321 321
321 323 323 322 321 320 318 317 317 317 316 317 317 317 316 310 292 307 328 328 325 317 307 305 303 301 300 298 299 296 298 299 300 299 306 305 310 308 310 311 317 321 321 321 320
318 319 321 322 321 320 318 317 316 316 315 316 317 317 311 300 300 308 327 326 317 312 305 303 303 302 299 299 299 296 298 301 302 304 307 309 307 307 311 317 321 322 321 320 319
317 317 319 320 320 319 318 316 316 315 315 315 316 316 306 295 306 311 314 312 310 307 306 305 304 304 302 301 299 301 300 303 307 306 307 306 307 308 312 319 317 318 318 320 318
316 316 317 319 320 319 318 316 315 315 315 315 316 311 304 299 311 310 311 310 310 308 304 306 306 305 304 301 303 302 299 302 306 306 306 308 303 303 315 317 315 315 316 318 319
316 315 314 316 317 317 316 315 314 315 315 315 314 308 298 308 311 310 312 311 311 310 307 308 308 306 304 305 302 299 296 295 302 306 305 304 298 307 314 315 314 314 316 317 319
315 314 314 313 315 316 315 314 314 315 315 315 307 304 298 312 304 309 312 306 309 309 309 308 308 303 303 299 296 297 292 293 298 305 305 302 298 307 313 314 313 314 315 317 317
313 314 313 313 313 315 313 313 313 313 313 313 310 300 304 301 306 310 313 311 308 308 307 306 303 300 299 298 290 293 293 294 294 300 303 302 301 306 312 313 313 313 314 316 317
312 313 313 313 314 315 311 308 300 301 307 302 301 300 299 307 311 308 310 308 308 306 300 304 299 296 298 299 298 296 295 294 296 299 301 301 301 302 312 313 312 312 313 314 317
310 312 313 313 313 313 310 305 301 305 298 305 305 304 305 309 304 307 309 304 302 298 302 299 297 301 299 299 298 297 295 295 297 299 298 296 297 299 308 311 311 312 312 313 316
311 311 312 311 313 311 308 306 310 310 298 301 304 302 304 306 302 303 305 302 299 297 299 297 299 300 300 298 297 297 295 295 295 297 297 296 293 296 303 309 312 313 314 315 316
310 310 310 310 308 309 305 310 311 311 292 293 298 303 306 306 300 308 305 304 301 297 298 298 300 299 298 297 298 293 298 298 296 295 291 296 289 293 297 303 308 311 313 314 316
310 310 309 311 306 304 307 311 310 306 279 294 301 310 307 301 301 303 305 304 299 298 299 296 297 297 296 297 299 297 299 298 297 294 294 292 291 295 295 296 303 310 314 316 317
310 310 309 308 309 308 311 313 310 292 280 291 301 299 299 301 299 301 302 304 304 300 299 297 302 300 299 300 300 300 298 296 295 293 288 291 291 293 295 297 299 305 312 316 317
309 309 309 311 304 312 313 307 292 284 295 291 296 297 296 295 295 297 296 296 295 292 292 296 297 300 302 298 300 298 295 289 287 287 286 293 290 295 298 300 302 303 306 314 317
309 308 308 308 314 310 311 298 284 289 291 297 296 296 292 293 294 295 294 294 295 295 292 290 289 297 301 299 297 296 295 290 282 284 287 292 289 295 301 302 303 304 304 305 314
308 305 304 306 310 310 302 289 287 290 295 294 294 291 291 292 293 294 294 294 295 297 292 290 290 299 301 302 300 296 293 296 289 288 287 290 293 297 299 301 303 304 304 305 307
301 301 300 307 311 306 295 289 293 297 299 299 291 292 289 290 291 292 291 295 295 297 300 296 290 297 300 302 300 298 299 292 291 284 282 286 288 291 296 299 301 302 305 306 306
299 293 300 307 309 299 288 290 294 300 300 296 295 294 291 290 292 290 292 295 297 295 298 296 294 293 298 296 295 295 294 292 293 290 285 283 288 297 297 300 301 303 304 306 306
296 286 298 306 291 294 290 293 297 297 301 299 299 298 296 293 292 292 291 295 297 298 295 298 295 290 293 298 299 298 296 295 291 287 287 286 288 298 298 298 298 302 304 307 310
292 292 301 301 285 288 293 294 296 296 297 297 296 299 300 296 291 293 294 298 297 298 297 298 292 287 289 294 298 296 296 295 293 291 287 287 290 298 299 300 300 300 303 304 308
292 285 293 295 295 290 290 290 292 298 297 298 297 298 298 296 297 293 294 299 298 299 300 300 293 291 287 291 294 293 294 295 295 289 290 289 293 297 299 298 301 301 300 301 301
292 288 292 286 287 290 292 292 290 291 297 298 295 296 296 292 294 293 298 300 300 300 300 300 292 292 292 292 293 294 294 293 293 294 291 294 291 297 298 299 298 298 300 304 305
288 288 291 292 291 289 291 290 290 292 294 293 294 296 296 293 295 292 295 298 297 298 297 297 292 292 291 292 292 291 293 294 294 293 293 293 292 298 298 298 298 299 303 303 303
296 294 293 291 290 286 288 290 292 294 296 297 296 295 294 296 300 301 302 302 301 299 296 295 292 290 288 290 291 287 292 292 293 294 295 291 297 297 296 296 297 299 300 299 299

GFSSW_sfc_thetae_060.txt.gz
Theta_e
324 324 323 323 322 321 320 319 318 318 317 318 318 319 318 318 316 315 310 314 315 320 319 315 313 314 312 307 309 308 300 297 297 298 302 310 309 316 319 318 320 323 323 328 326
323 325 325 324 322 321 320 319 318 318 318 318 318 318 318 317 314 311 317 318 322 323 314 310 308 310 309 307 307 304 300 298 303 304 303 306 310 311 315 316 317 320 324 325 324
320 321 324 324 323 321 320 319 317 318 318 317 317 318 317 317 309 310 326 322 322 322 315 312 309 310 306 308 306 305 300 303 305 307 307 306 307 312 311 310 316 318 319 321 323
319 319 320 322 323 321 319 318 318 318 318 317 317 318 317 315 298 315 328 327 325 320 313 310 307 305 304 303 306 301 305 306 306 306 306 306 309 311 313 315 321 324 322 321 321
316 317 318 319 322 321 319 318 317 318 317 316 316 318 315 306 305 314 328 328 320 316 311 307 305 306 303 304 305 303 305 306 309 310 308 310 310 312 314 321 325 324 321 320 320
314 315 317 317 319 320 319 318 317 316 316 316 316 316 310 300 311 318 319 317 315 314 310 309 308 310 306 305 305 306 306 307 310 309 310 310 311 313 316 323 322 320 320 321 320
314 315 315 316 316 318 319 318 316 316 316 316 316 314 307 305 313 316 314 315 316 314 309 311 311 309 309 305 308 307 303 306 310 310 310 313 308 309 317 321 318 318 319 321 320
313 314 314 314 314 315 316 316 316 316 316 316 315 312 302 313 315 312 316 315 316 315 313 313 313 311 309 310 307 303 303 299 308 310 311 310 301 310 318 320 317 318 320 319 321
312 313 313 313 313 313 315 315 316 315 315 315 312 310 302 313 309 312 313 313 315 314 315 312 312 310 309 303 300 301 297 297 302 311 309 309 303 312 318 318 316 317 319 320 322
312 312 312 313 313 313 314 314 316 313 315 314 313 305 308 304 309 314 315 313 311 312 310 309 309 305 305 302 293 295 296 298 298 306 308 306 304 310 316 317 316 316 318 318 320
312 311 312 312 313 312 315 317 311 307 310 304 305 305 304 310 315 312 315 311 310 310 304 309 303 300 301 302 303 301 299 297 300 304 305 303 304 305 314 316 316 316 316 318 320
311 311 311 312 312 313 314 311 310 309 301 308 307 308 310 311 305 311 315 307 306 303 306 304 300 304 305 304 302 301 298 298 301 303 302 302 302 305 309 314 316 316 315 316 319
311 311 311 311 312 312 311 314 316 314 302 303 307 305 306 309 304 307 311 307 304 303 303 300 302 305 304 302 301 301 299 298 298 302 304 302 299 301 306 312 315 317 318 317 318
310 310 309 310 307 312 311 317 317 316 297 296 301 305 306 307 302 310 313 307 304 301 303 302 306 302 302 301 302 298 303 301 299 298 294 302 292 299 303 306 310 314 318 319 319
310 310 309 309 309 307 313 319 318 313 282 297 301 311 308 302 303 305 312 307 301 301 303 299 302 301 300 301 303 299 303 302 301 299 298 297 295 299 301 301 306 312 315 319 321
309 310 309 308 308 313 317 318 314 295 282 293 303 302 301 302 302 306 305 308 308 303 303 302 306 304 303 304 304 305 302 301 302 299 292 296 295 297 299 301 304 308 314 317 320
309 309 308 309 305 316 318 312 294 286 295 292 297 300 300 297 299 301 300 300 298 295 296 300 301 304 305 302 304 303 300 292 291 291 290 297 295 298 303 305 306 307 310 314 319
308 308 308 309 311 317 312 299 287 290 292 299 298 299 296 298 298 300 299 297 301 300 297 294 292 300 305 303 300 301 300 293 285 287 290 296 291 298 305 307 309 311 311 311 313
308 306 304 308 311 312 303 289 288 292 296 294 297 295 293 297 298 299 298 297 300 302 295 295 294 302 304 305 304 300 297 301 294 294 293 294 297 303 304 305 308 308 310 312 312
303 301 300 308 312 303 295 290 293 298 299 300 292 297 292 292 294 297 296 301 300 303 305 300 293 301 303 306 305 303 304 295 297 286 285 291 292 295 299 303 304 305 308 311 313
301 293 303 308 307 295 288 291 295 301 302 298 297 296 295 294 294 296 296 299 303 302 304 302 299 298 302 300 299 300 298 299 299 296 289 287 292 302 301 304 306 308 309 311 313
296 286 307 306 289 291 289 295 297 298 303 301 301 300 298 296 294 295 296 299 304 304 299 303 299 294 296 302 304 303 301 301 294 291 294 294 292 305 306 306 305 306 308 312 314
291 292 305 304 283 285 293 295 297 297 298 299 298 300 303 299 293 296 297 303 303 303 301 303 297 292 293 298 302 299 301 301 300 298 293 292 293 305 305 305 307 307 308 309 312
292 286 293 295 297 290 290 291 292 298 298 300 299 300 298 297 301 296 297 300 303 304 302 304 299 295 291 294 298 296 298 300 299 294 294 295 296 301 304 305 307 308 308 308 308
293 291 293 284 289 291 293 293 291 292 298 301 298 298 297 294 297 297 298 301 300 300 303 304 296 298 298 298 298 297 297 298 296 297 294 296 296 301 304 306 307 306 306 309 310
290 292 296 292 293 291 291 291 291 293 295 295 296 298 299 296 297 295 298 300 300 302 302 303 296 298 295 298 297 295 297 298 298 298 299 299 298 306 307 306 304 305 307 308 309
296 301 297 292 291 289 291 290 292 296 298 299 299 297 296 298 301 303 303 302 302 301 301 300 298 296 291 296 295 290 296 298 299 301 301 296 302 306 305 304 304 306 307 307 307

GFSSW_sfc_thetae_063.txt.gz
Theta_e
322 323 325 324 323 323 322 321 319 319 319 319 318 318 319 319 317 318 313 317 316 323 317 318 316 315 315 311 311 311 301 298 299 300 303 310 307 317 318 316 321 323 324 327 326
320 321 322 324 324 323 322 321 319 319 319 319 318 318 318 317 317 314 320 322 322 322 317 313 311 313 310 310 309 306 302 301 305 305 304 307 308 311 311 309 317 322 327 326 325
317 318 319 320 322 322 322 321 319 319 319 318 318 318 317 317 313 313 325 321 322 322 318 315 313 311 308 309 308 307 301 305 305 308 309 308 308 311 310 305 316 317 322 323 323
315 316 316 318 320 322 321 319 319 319 319 318 318 318 317 318 302 318 327 325 324 319 317 313 310 307 306 305 309 302 306 306 307 308 308 307 311 309 313 317 321 326 326 323 322
314 315 314 316 318 319 320 319 319 319 319 318 318 318 316 309 310 319 327 328 317 317 314 310 307 307 304 306 307 304 305 307 308 309 311 311 309 310 314 322 327 324 323 320 320
313 314 315 315 316 317 318 318 318 318 318 318 318 316 313 303 315 318 319 324 318 316 313 312 308 310 308 307 306 308 307 307 309 309 310 308 310 314 318 324 323 321 320 320 320
313 313 314 315 315 315 316 316 317 318 318 318 317 317 311 308 318 318 318 318 319 316 312 312 313 311 311 307 310 308 303 306 307 310 308 311 306 302 320 322 321 321 322 321 321
313 313 313 314 313 314 314 314 316 317 318 316 316 317 308 318 319 316 316 317 319 317 315 315 315 313 311 312 308 304 304 299 305 308 310 309 297 306 319 319 318 320 320 322 322
313 312 312 312 312 313 313 314 315 318 316 315 316 314 306 315 311 314 314 312 316 316 316 314 314 310 310 304 301 302 297 298 302 309 307 307 302 310 316 317 317 318 319 321 321
312 312 311 311 312 312 312 313 316 314 316 318 316 307 311 306 312 312 315 313 314 313 312 311 310 306 306 303 295 297 297 300 299 305 306 304 305 309 314 315 316 317 318 320 320
312 312 312 311 312 312 312 317 313 312 315 306 306 304 307 311 315 312 313 312 313 311 304 308 303 300 304 305 304 302 300 298 302 306 304 304 305 307 314 314 315 316 317 318 320
312 311 311 311 312 312 315 310 310 313 302 310 310 309 312 312 307 311 313 306 306 303 307 305 300 306 306 304 303 302 300 298 302 304 304 302 304 305 309 313 315 316 315 317 320
312 311 311 310 311 310 312 312 319 317 304 304 307 307 307 309 305 308 311 308 304 303 304 302 304 307 304 303 301 302 300 299 299 304 305 303 301 303 307 312 315 317 317 316 319
311 310 310 310 305 309 311 317 320 320 297 297 303 306 307 307 303 311 312 309 306 302 304 303 306 304 303 302 303 298 304 302 301 299 294 303 292 301 304 306 311 314 318 317 318
310 310 310 308 307 308 314 319 321 315 282 300 303 312 309 304 303 304 313 308 302 303 304 301 302 303 301 302 305 301 305 302 302 300 300 300 295 298 304 301 306 312 317 319 319
310 310 309 307 308 309 316 320 318 296 283 295 304 301 303 303 303 306 306 310 308 303 304 304 307 305 304 306 305 306 303 302 302 300 293 297 297 296 300 302 304 308 313 318 319
309 309 309 310 304 311 314 312 294 286 296 294 299 302 301 299 300 302 301 301 298 294 297 301 302 306 307 302 305 304 300 292 291 291 291 300 296 298 304 306 306 307 310 315 319
308 308 308 309 312 314 312 299 286 291 292 300 300 302 298 299 299 300 300 298 302 300 298 295 293 302 306 303 301 302 301 294 286 288 290 298 292 297 306 307 309 311 312 314 316
307 307 304 310 313 309 297 287 289 292 296 295 299 297 298 299 297 298 298 297 300 302 297 295 295 304 305 306 305 302 298 303 296 297 293 295 299 303 305 305 307 308 310 313 315
303 302 302 311 313 304 290 289 292 297 297 298 293 298 295 296 294 296 296 300 300 303 306 301 295 302 304 306 306 304 306 296 297 287 287 292 295 295 301 303 305 306 308 310 314
300 294 304 311 310 297 285 291 296 299 300 297 296 295 298 296 296 295 296 300 302 302 305 303 300 298 303 301 299 301 300 301 300 296 290 289 294 303 302 304 305 307 308 310 312
299 287 304 308 289 294 287 294 297 297 301 301 303 299 299 300 295 294 296 300 304 305 300 304 301 296 298 304 305 304 301 301 295 293 296 295 295 306 306 307 307 308 309 311 314
292 293 306 304 285 289 292 293 295 296 297 299 299 303 303 300 296 296 297 304 305 304 302 303 298 293 295 300 303 300 303 303 302 300 294 293 294 306 307 306 308 308 309 311 313
293 285 294 297 297 293 290 290 291 298 298 300 300 303 302 300 302 298 297 301 305 305 304 305 300 297 292 296 300 297 299 301 300 296 295 295 297 302 304 305 307 309 310 311 312
293 290 293 286 290 293 293 292 290 290 297 299 298 299 300 296 298 298 300 300 302 302 304 304 296 298 299 300 300 299 298 299 298 299 295 297 298 301 304 306 308 310 310 310 311
289 293 296 294 294 293 292 291 290 292 295 295 296 298 300 298 298 297 299 300 299 303 303 305 297 299 296 299 299 296 298 299 299 299 298 299 298 305 307 308 307 308 308 310 311
299 301 298 292 293 292 292 291 292 295 297 298 297 298 298 301 303 303 304 302 304 302 301 302 300 297 293 298 298 293 297 298 299 301 300 296 302 306 305 306 307 308 310 310 312

GFSSW_sfc_thetae_069.txt.gz
Theta_e
318 318 318 319 319 320 321 322 322 321 321 321 321 320 320 319 317 312 307 315 318 324 317 312 309 307 305 302 304 301 290 288 292 294 297 305 303 309 310 308 310 320 319 320 322
316 315 315 316 317 318 319 320 321 321 321 321 320 320 320 319 313 309 317 325 324 324 310 310 308 306 301 300 301 295 288 292 299 299 299 302 304 303 305 305 306 315 321 321 322
316 314 314 314 315 316 317 318 318 320 321 321 320 320 319 317 308 310 322 324 323 322 308 309 309 307 299 300 300 298 293 298 300 301 300 298 300 307 304 303 305 309 317 319 320
315 314 314 314 314 315 316 316 316 318 319 320 320 320 319 314 297 311 325 325 324 313 307 307 307 300 297 296 301 294 301 300 299 301 299 298 300 306 304 305 314 313 320 322 319
314 312 312 314 314 315 314 315 315 316 317 319 321 320 314 307 308 317 328 324 315 310 305 304 304 302 298 299 299 298 300 302 302 301 300 302 305 308 307 310 315 320 321 320 319
313 313 313 311 312 314 314 313 313 314 315 318 320 318 311 300 314 316 317 318 312 307 306 307 305 306 302 300 298 303 302 301 302 301 302 301 304 308 307 312 313 319 318 318 319
314 313 310 312 311 311 312 312 312 313 315 316 319 318 308 304 314 314 313 311 316 313 307 309 309 305 302 299 306 304 299 300 300 301 300 303 298 302 310 311 312 318 318 318 320
313 313 312 310 309 310 311 311 311 312 314 316 318 314 302 315 314 313 313 310 313 314 313 312 311 306 302 304 303 299 297 291 299 301 302 302 292 303 311 313 314 315 316 317 318
313 312 312 312 309 309 309 311 311 312 313 315 312 308 302 317 310 313 311 309 311 310 311 314 308 303 302 296 293 295 290 292 295 302 301 299 295 305 309 311 310 315 315 315 316
312 312 312 312 311 310 309 310 310 311 311 315 314 303 308 304 310 311 312 311 307 307 307 305 300 296 295 292 287 290 294 293 292 298 301 298 298 303 306 308 309 311 312 314 314
311 312 312 312 311 310 306 302 301 302 306 304 304 302 303 309 312 308 310 307 306 303 298 301 293 292 294 296 298 297 296 293 296 302 300 298 298 301 306 308 308 309 311 313 313
311 311 311 311 312 310 304 297 301 303 296 308 309 308 309 311 304 307 309 302 300 295 301 297 293 298 300 300 299 299 295 293 299 302 298 294 293 303 305 305 307 309 310 312 315
311 310 311 311 311 305 300 300 306 304 296 301 305 305 308 309 303 303 306 302 298 295 298 295 298 302 300 298 297 297 294 294 295 299 299 295 293 300 305 307 308 311 313 313 315
310 310 310 310 302 301 298 305 307 305 291 293 297 300 303 302 300 307 307 303 298 295 298 297 302 301 299 298 299 293 300 299 299 295 288 295 286 295 300 303 306 309 311 312 314
310 310 309 310 301 300 305 309 309 308 276 293 295 307 303 297 300 300 307 303 296 296 298 296 299 298 297 299 301 297 304 301 299 294 291 292 289 295 300 298 302 304 310 311 313
309 310 309 305 302 303 306 306 305 288 277 291 301 299 298 297 298 301 300 303 302 297 298 297 302 301 300 302 302 303 301 299 297 293 285 292 293 292 294 298 302 305 309 310 313
309 310 308 305 298 304 308 302 288 279 291 288 296 299 297 295 295 297 295 294 292 289 289 295 297 301 303 298 301 299 293 285 283 282 282 297 293 293 301 303 303 304 308 309 311
308 308 307 305 304 306 304 292 281 288 287 295 296 298 294 297 295 295 293 291 296 295 291 289 287 297 302 299 296 296 294 286 281 281 286 296 290 293 302 304 305 306 310 311 310
308 305 303 304 304 305 296 283 282 287 291 290 291 290 293 296 296 294 293 292 296 298 290 289 290 301 301 302 300 297 292 298 292 292 287 292 295 299 301 300 302 302 305 309 310
303 300 299 305 304 300 290 284 286 292 294 293 286 291 291 294 293 293 293 297 296 300 301 295 290 298 300 302 301 298 301 292 295 283 283 290 291 291 297 300 300 299 300 304 307
301 293 300 305 304 293 282 285 289 294 295 291 289 289 290 289 295 293 293 297 299 298 300 297 294 294 298 296 296 295 294 297 297 292 284 282 287 298 298 303 299 300 302 304 305
298 287 301 304 288 289 284 288 292 291 295 292 293 291 291 291 290 294 293 296 301 300 295 298 296 290 292 299 302 299 296 297 289 289 291 286 287 301 300 301 302 302 303 303 307
293 292 301 300 283 283 289 288 290 290 291 291 290 293 294 291 288 296 297 301 302 298 296 298 293 287 289 296 299 295 297 298 299 296 290 283 287 302 302 301 302 300 302 304 304
291 284 292 295 292 286 285 286 287 292 292 293 291 292 292 291 294 295 296 301 301 301 302 301 295 291 286 291 296 293 296 297 296 287 289 290 293 299 301 299 301 301 302 302 304
290 287 290 285 287 288 288 288 285 286 291 293 290 290 290 288 291 293 298 300 300 302 300 298 291 293 294 297 298 297 295 295 295 296 290 293 295 298 299 300 301 302 304 303 305
285 288 291 288 291 288 288 287 287 288 290 288 287 290 292 290 292 292 296 297 295 299 297 298 291 294 292 297 297 295 297 296 296 295 294 298 296 302 301 301 302 304 304 304 304
294 295 292 289 288 286 286 287 288 291 291 293 291 290 289 292 300 301 301 300 299 297 294 295 293 292 287 294 294 287 294 295 297 297 295 290 295 300 299 299 300 302 304 305 307

GFSSW_sfc_thetae_072.txt.gz
Theta_e
317 316 316 316 317 317 318 319 318 319 321 321 322 321 321 320 318 314 305 313 317 324 320 308 307 305 302 298 300 297 289 287 289 290 293 301 302 308 310 307 314 319 318 319 320
316 314 314 314 315 316 316 317 317 317 318 320 321 321 320 319 314 309 318 324 326 325 307 308 306 302 299 297 298 294 287 290 296 296 297 299 300 300 305 305 307 314 319 320 319
315 313 314 314 315 315 315 315 315 316 317 318 319 320 319 318 308 307 325 326 327 324 306 307 307 304 298 297 297 294 292 298 299 299 296 297 304 306 304 302 308 308 315 319 319
315 315 313 313 314 314 314 314 314 313 315 316 318 320 319 314 290 309 324 324 324 310 305 304 304 299 295 294 296 293 298 299 300 301 297 295 306 306 302 308 314 315 317 318 318
314 314 314 314 313 312 313 313 313 313 313 314 316 318 314 306 306 314 327 324 314 308 303 301 301 300 296 297 297 295 297 300 300 300 298 302 305 307 304 312 317 319 319 318 316
313 313 313 312 311 311 311 312 312 313 313 313 315 319 310 297 309 314 319 315 310 305 304 303 302 304 300 298 295 299 299 300 301 299 299 299 304 305 306 311 315 318 317 317 317
313 313 313 313 310 310 311 311 312 312 312 312 313 314 306 301 310 310 311 308 312 308 304 306 306 302 301 298 302 301 297 298 299 299 299 302 296 301 307 311 315 314 316 316 318
312 313 312 311 312 310 310 310 310 311 312 313 313 311 300 313 312 311 311 310 312 310 310 309 308 304 300 301 299 297 295 290 296 298 301 298 292 301 308 308 312 313 314 316 318
312 312 312 312 311 311 310 310 310 311 312 313 308 306 298 315 310 313 312 306 308 310 309 313 308 302 300 293 290 292 287 290 294 302 298 297 293 302 309 313 312 313 314 314 316
312 311 312 312 311 310 310 310 309 310 308 309 311 302 304 301 308 309 309 309 306 305 304 304 299 295 293 290 284 287 289 289 291 297 294 295 296 301 305 308 311 311 313 313 314
312 312 311 312 311 310 306 300 296 300 303 301 302 301 301 307 311 307 309 307 304 300 295 299 293 291 293 294 295 294 292 291 295 300 299 297 295 300 302 306 306 309 309 311 313
310 311 311 311 311 311 302 296 297 298 290 300 303 306 309 310 303 307 307 300 298 293 298 296 292 298 298 297 295 294 292 292 296 300 297 294 292 299 303 305 307 310 310 310 312
311 311 311 310 310 304 300 299 305 302 290 296 302 303 305 308 303 303 304 300 297 294 295 293 297 301 298 295 294 294 292 293 293 296 296 293 290 297 303 305 307 309 310 311 312
311 310 310 309 301 301 298 305 307 305 285 289 297 298 303 304 299 306 304 301 297 294 294 294 300 299 296 295 296 291 298 297 295 293 287 292 284 294 298 301 304 307 308 310 313
310 310 310 308 297 297 303 306 307 301 270 289 294 306 303 297 297 301 306 301 294 294 294 293 296 296 295 296 300 295 300 299 297 293 289 290 286 291 297 296 300 305 308 311 314
310 310 309 306 300 299 305 304 305 287 274 288 296 295 295 297 296 298 300 302 301 295 295 294 300 299 298 301 300 302 298 297 294 291 284 289 289 288 292 297 299 306 309 311 313
310 310 308 306 294 301 303 301 286 278 289 286 293 297 293 292 293 294 293 293 291 287 288 292 293 298 299 295 299 298 291 284 283 282 282 295 291 292 297 300 301 306 309 311 314
309 308 308 307 303 300 303 292 279 285 285 292 291 291 292 293 291 292 291 288 293 292 288 286 284 294 299 296 295 294 293 286 281 280 284 294 288 293 300 303 303 305 310 312 312
309 305 303 305 303 302 293 280 281 285 291 289 289 286 287 294 293 291 290 289 292 294 288 286 287 297 299 300 299 294 290 296 290 290 284 289 295 298 299 298 300 301 307 309 311
303 301 300 305 304 298 288 283 285 290 291 291 285 289 285 289 289 289 289 294 293 296 297 292 287 295 297 301 300 297 299 291 292 283 281 287 289 290 295 297 297 299 303 306 310
302 294 301 304 303 291 281 284 288 292 292 289 286 287 287 287 289 289 291 295 296 296 298 296 291 291 297 295 293 294 293 295 296 291 283 281 286 295 297 298 298 298 301 303 307
299 287 301 303 288 288 282 287 292 290 293 290 292 289 288 289 288 289 289 294 299 298 293 297 292 287 290 298 300 296 295 294 288 288 291 285 286 298 299 300 299 299 302 303 305
293 291 301 298 283 283 287 286 289 289 289 289 289 291 292 289 285 292 292 300 301 297 294 295 290 285 287 294 297 294 296 296 297 294 289 284 287 299 299 299 300 298 300 303 305
289 284 291 293 291 287 285 284 285 291 289 290 290 291 288 287 290 290 292 300 302 301 301 299 292 289 284 288 294 291 295 296 295 287 289 289 294 297 298 298 299 299 300 301 304
288 285 289 285 286 288 287 286 284 285 290 291 287 288 288 285 287 289 296 297 301 301 300 297 289 291 292 295 295 294 294 295 293 293 290 293 294 297 298 299 300 300 301 300 301
284 287 290 289 290 287 287 284 285 286 288 286 286 289 290 286 287 286 294 295 296 298 296 297 289 292 289 294 295 292 295 296 296 294 295 295 294 301 302 299 300 301 302 300 302
296 294 292 289 288 285 284 286 286 289 289 290 289 287 286 289 293 298 299 299 299 295 294 293 291 288 284 293 292 287 292 295 295 296 295 290 296 301 300 300 298 300 301 301 302

GFSSW_sfc_thetae_075.txt.gz
Theta_e
316 315 315 315 314 314 314 315 315 315 315 317 318 319 320 320 317 313 304 311 314 324 320 307 305 303 300 297 298 295 288 284 288 288 292 295 299 306 309 307 313 317 316 316 319
315 314 313 314 315 315 315 314 314 314 314 315 316 318 319 319 312 308 315 324 325 324 305 306 303 301 297 296 296 293 287 289 294 294 296 297 299 301 303 303 306 313 318 318 319
315 314 314 314 314 314 314 314 313 313 313 313 315 317 317 317 304 301 323 325 327 322 305 306 305 303 296 296 295 292 291 294 298 298 296 293 298 305 303 300 306 308 312 316 318
313 313 315 314 314 314 313 312 313 312 312 312 313 316 316 312 288 305 324 324 326 313 303 301 300 298 295 293 295 291 296 296 297 298 294 293 301 303 302 303 312 311 316 317 316
313 313 313 314 313 312 312 312 312 313 312 312 313 314 313 302 304 312 326 323 313 306 301 300 299 299 295 295 295 293 296 297 298 298 298 304 303 304 304 311 316 316 316 316 317
313 313 313 313 313 312 311 312 312 312 312 312 312 313 309 294 307 310 310 314 308 303 301 300 299 301 298 297 294 297 297 298 299 299 298 301 303 303 304 311 310 316 315 316 316
312 312 313 312 312 312 312 311 311 311 312 311 312 310 303 298 306 308 309 306 306 306 301 303 303 300 300 297 301 298 295 296 297 297 297 302 295 300 304 308 308 314 315 316 314
313 312 312 312 312 311 311 311 311 311 311 312 311 308 297 310 310 309 308 308 311 309 306 307 306 302 299 300 298 293 293 288 293 296 298 296 290 296 306 306 307 312 313 315 316
313 312 311 311 311 311 310 310 310 312 312 311 305 303 296 312 308 312 311 306 307 308 307 311 305 300 299 292 289 289 284 288 292 297 296 293 291 297 305 305 307 312 311 312 314
311 312 312 311 311 310 310 310 310 309 308 308 309 298 300 298 305 309 310 308 302 304 303 301 299 294 292 289 284 285 287 287 289 294 295 292 292 298 304 306 308 310 311 311 313
311 311 312 311 310 310 307 301 293 296 297 296 299 298 300 306 311 306 307 304 303 300 294 298 292 290 293 293 293 292 290 288 292 297 294 294 293 298 300 305 304 308 310 310 312
311 311 311 311 310 310 303 296 297 298 290 298 297 298 304 307 301 303 308 299 297 292 295 294 290 297 296 295 294 292 289 289 293 297 294 293 293 296 300 302 305 306 307 309 312
311 311 310 310 309 304 299 299 305 304 292 294 297 295 296 302 299 300 304 299 295 292 293 291 294 299 297 294 292 292 290 290 291 294 294 292 290 295 300 303 304 306 309 310 311
310 310 310 309 300 300 297 305 305 305 282 285 292 296 300 302 296 304 304 299 296 293 293 292 297 296 294 293 293 288 295 295 293 290 285 291 283 289 296 300 302 305 305 307 310
309 310 309 308 295 296 301 302 302 298 270 287 293 303 302 295 295 299 303 299 293 293 293 290 293 293 292 294 296 292 297 295 294 290 288 288 285 289 294 295 298 303 305 306 310
309 309 309 306 299 298 303 302 303 283 272 284 293 294 294 297 295 298 298 299 298 294 293 292 297 297 295 298 298 300 296 294 292 289 283 288 287 286 290 295 298 301 305 307 309
309 309 307 306 295 300 300 298 284 277 288 284 289 291 291 291 293 292 293 291 289 286 287 290 292 295 298 294 297 295 290 283 281 281 281 291 288 290 295 297 300 301 304 306 310
308 308 307 306 301 299 297 288 277 283 283 290 289 289 286 291 290 290 290 287 291 290 286 285 283 292 296 295 291 292 291 283 280 279 282 291 287 291 299 300 301 303 306 308 309
308 305 304 305 303 302 291 280 280 284 289 288 289 285 284 290 290 289 287 286 290 291 286 285 285 294 296 297 297 291 288 295 288 287 283 287 292 297 299 297 299 300 305 306 309
302 301 301 306 304 298 286 280 284 290 290 289 284 287 283 286 288 287 287 291 290 293 294 291 284 293 295 297 297 295 298 289 288 281 280 285 287 289 294 296 296 297 302 306 310
301 293 302 306 303 292 280 282 286 290 291 287 285 285 286 286 289 287 288 292 293 293 294 292 289 288 294 292 290 292 291 293 293 288 281 280 284 294 296 297 296 297 301 306 308
298 287 302 303 286 287 283 284 290 289 292 289 289 288 286 287 286 288 287 291 295 298 291 293 290 286 289 295 297 295 292 295 286 286 287 283 286 297 298 298 296 297 300 305 308
292 291 302 299 283 283 287 287 287 287 288 288 288 289 290 286 283 288 291 296 299 298 292 294 288 282 286 291 295 292 293 294 294 293 286 282 287 298 298 298 299 297 298 301 306
287 283 291 294 291 286 285 284 283 289 288 290 288 289 287 285 288 286 289 296 301 299 301 299 290 288 284 286 292 290 293 295 293 286 287 288 291 297 299 297 299 298 298 299 301
287 285 289 283 286 288 288 287 284 283 288 288 285 286 285 282 285 285 290 293 296 300 298 296 288 289 291 293 295 294 293 294 290 292 289 291 293 297 299 299 299 299 299 299 300
284 287 291 287 290 287 287 285 285 286 287 284 285 288 287 283 284 284 289 292 293 298 296 297 289 291 288 292 294 292 294 293 292 293 292 293 293 298 301 299 298 300 299 299 299
295 294 293 289 288 285 284 286 286 288 288 289 288 287 285 287 290 292 293 296 298 296 294 293 289 287 284 291 292 285 290 293 293 294 294 289 294 299 298 299 299 299 299 300 300

GFSSW_sfc_thetae_078.txt.gz
Theta_e
314 315 315 313 314 313 313 313 313 313 313 313 313 314 316 317 315 311 304 307 313 322 317 307 304 302 298 295 296 294 288 284 287 288 291 294 295 304 307 307 310 315 311 316 319
315 315 314 314 314 314 314 313 313 312 312 312 313 314 316 316 311 306 314 322 323 325 305 302 299 299 295 294 294 292 287 288 292 292 294 296 294 296 301 301 303 310 316 317 319
312 313 313 314 314 314 314 313 312 313 312 313 313 314 314 314 302 297 324 324 325 322 304 305 304 301 296 294 293 290 289 292 295 295 294 292 292 301 301 299 303 305 311 316 317
310 311 311 312 313 314 312 312 312 312 312 311 312 313 314 310 286 302 325 327 328 314 302 300 299 297 294 293 295 290 294 295 295 296 293 292 296 300 301 302 310 309 314 316 316
312 311 311 311 312 313 313 312 312 312 312 311 311 312 309 299 299 309 321 322 311 305 300 299 297 296 294 294 294 291 294 296 296 296 296 298 298 300 302 306 314 315 315 315 316
312 312 312 311 311 311 312 312 311 312 312 311 311 312 305 292 302 308 308 310 306 301 300 299 298 300 297 295 294 296 294 295 296 297 297 297 297 302 303 311 313 313 312 315 316
312 312 312 311 311 310 311 311 311 311 311 311 311 308 301 295 304 305 307 304 304 303 299 300 300 299 298 295 299 297 293 294 294 295 295 298 294 298 304 310 307 311 314 314 316
310 312 312 311 311 311 311 310 310 311 311 311 311 306 295 308 308 307 305 306 307 306 304 305 304 300 298 299 297 292 291 286 290 294 295 296 289 296 300 305 303 310 313 314 315
311 311 311 311 311 310 310 310 310 311 311 311 304 301 293 309 305 309 309 305 306 307 305 309 303 298 297 292 288 288 284 285 289 295 294 292 290 295 302 304 303 309 311 312 313
311 312 311 311 311 310 309 309 309 308 307 307 307 295 297 294 304 308 309 308 302 302 301 300 298 293 292 289 284 285 285 285 287 290 292 290 291 295 300 302 302 307 309 310 312
312 312 311 311 311 310 306 299 293 291 295 294 296 296 298 305 310 306 306 304 302 298 293 295 290 288 292 293 292 290 288 287 289 293 292 291 290 294 296 303 302 306 308 309 311
311 311 311 310 310 310 302 296 297 297 289 297 296 296 300 303 296 300 306 298 296 291 294 291 289 295 296 295 293 291 288 288 291 294 293 291 292 294 297 299 303 304 307 308 310
310 311 310 310 309 302 298 297 304 303 291 293 297 295 296 298 293 294 300 298 295 291 292 290 292 297 295 292 291 291 289 289 288 291 292 290 289 291 296 300 302 303 306 309 311
310 310 310 309 299 298 295 303 302 302 284 285 290 294 297 298 292 300 301 297 294 291 292 291 296 294 293 292 293 287 293 293 291 288 283 290 282 289 292 296 300 301 303 307 310
309 310 309 308 295 295 301 303 302 297 271 286 291 302 300 291 293 297 303 297 289 292 292 289 291 292 291 292 294 291 294 292 291 288 285 287 283 287 291 293 296 300 302 305 310
309 309 309 305 299 299 301 302 302 283 272 283 292 293 294 295 295 297 297 299 296 293 291 291 295 294 293 296 296 298 293 292 291 288 281 287 286 285 288 294 296 299 301 303 308
308 308 307 306 294 301 300 299 284 276 286 284 286 289 288 290 292 292 292 290 287 284 285 289 290 292 297 291 295 293 288 281 280 280 281 289 286 289 293 296 297 298 299 301 307
307 307 307 306 301 300 296 289 277 283 283 288 288 289 285 289 289 290 289 286 290 288 283 283 281 290 295 294 291 291 289 282 279 279 282 289 285 290 298 299 300 300 301 302 306
307 303 303 305 302 300 290 278 279 283 287 286 288 284 283 288 289 289 286 286 288 290 285 284 283 292 294 295 296 290 288 292 286 285 282 285 290 294 297 297 297 297 298 301 305
300 299 300 307 305 299 286 279 282 288 289 288 282 286 282 284 286 287 286 290 289 291 293 289 283 291 293 295 295 293 295 287 286 281 279 283 285 287 293 295 296 296 298 302 305
299 293 301 306 304 292 281 280 283 288 288 286 284 284 285 284 285 286 286 290 292 294 294 290 287 287 291 289 288 289 290 291 291 287 281 279 283 293 295 297 297 296 297 301 304
296 286 302 304 289 286 283 285 289 287 290 287 288 286 285 285 284 286 286 291 295 296 291 292 287 283 287 293 294 293 290 292 285 284 284 283 286 295 297 297 296 296 297 300 305
292 291 302 300 283 283 287 287 287 286 287 287 286 288 288 284 282 286 288 296 298 297 293 296 287 280 284 289 292 290 291 293 294 290 285 282 286 297 297 297 298 297 297 298 302
287 283 291 295 292 287 285 284 284 288 286 289 288 288 286 284 286 284 286 291 296 296 300 298 292 285 281 284 288 287 291 292 293 284 285 286 289 293 297 297 298 299 298 297 300
288 284 288 282 286 287 287 286 284 283 287 288 285 286 284 281 282 282 286 288 294 298 298 295 286 288 289 290 290 291 291 292 290 289 286 288 290 296 297 298 300 300 298 297 298
284 286 291 286 289 287 287 285 285 285 286 284 283 286 286 282 283 282 286 287 287 296 295 296 287 288 286 290 290 288 291 291 291 291 290 290 290 298 299 300 298 300 299 298 298
293 293 292 288 286 286 285 286 286 288 288 289 287 286 284 286 288 289 289 289 289 287 291 292 287 285 282 289 289 284 289 290 291 293 292 287 292 298 297 297 298 300 299 299 298

GFSSW_sfc_thetae_081.txt.gz
Theta_e
315 316 315 315 315 315 314 314 313 312 312 313 313 313 314 315 314 311 304 308 314 323 319 310 308 307 305 303 303 301 297 293 294 294 297 300 300 305 311 310 313 318 318 319 321
313 313 314 314 315 314 314 314 313 313 312 312 313 314 314 314 310 306 314 321 322 324 309 306 303 304 302 301 301 300 296 295 298 298 298 300 299 301 305 307 309 314 319 320 321
310 310 311 312 313 314 314 313 313 313 313 313 313 313 313 313 301 298 325 324 324 324 308 308 305 304 300 301 300 298 296 298 299 300 301 300 298 302 304 302 307 309 315 317 319
311 311 311 311 311 312 313 313 313 313 313 313 312 312 313 311 288 306 323 326 326 317 307 307 304 302 300 299 301 296 298 299 301 301 300 298 302 303 305 305 313 312 318 318 317
312 311 311 312 311 311 312 312 312 311 311 312 312 312 309 298 296 309 318 323 317 310 304 303 302 301 299 299 298 296 298 300 300 299 299 300 300 301 304 309 315 316 317 317 318
312 312 312 311 312 311 311 311 311 310 310 310 312 311 305 290 302 310 308 309 309 305 303 302 302 303 300 300 298 300 299 299 300 301 301 299 301 305 306 311 314 315 314 317 318
311 311 312 311 311 311 311 311 311 311 310 310 310 307 299 294 304 306 306 306 307 306 302 303 303 303 302 299 302 300 297 299 300 301 300 301 298 301 307 313 313 314 316 317 318
311 311 311 311 311 311 311 311 311 311 311 310 310 305 293 307 310 307 308 306 307 306 304 306 307 303 301 303 300 297 296 293 297 298 300 301 294 302 304 310 311 313 315 315 317
311 311 311 311 311 311 311 310 310 310 311 310 304 300 292 308 304 308 307 304 307 306 305 308 306 302 301 296 293 294 290 291 293 298 299 299 296 301 306 307 308 310 313 314 315
311 311 311 311 311 310 310 309 308 308 308 308 305 294 297 293 304 308 310 309 304 304 302 301 302 298 298 294 287 290 290 291 292 296 297 296 296 300 302 306 307 310 312 313 313
311 311 311 311 311 310 305 300 296 294 297 294 294 294 297 304 307 307 310 306 304 300 294 299 295 292 295 297 295 294 292 291 294 297 296 295 295 298 302 305 305 309 312 314 315
310 310 311 311 310 310 302 295 297 298 290 297 295 296 301 302 294 300 306 299 298 293 296 294 292 296 297 297 296 294 292 292 295 297 296 296 295 300 301 303 307 308 311 314 316
309 310 310 310 309 302 299 297 303 301 291 293 297 295 296 298 293 294 300 301 296 293 294 291 294 298 296 294 293 294 293 293 292 294 297 295 293 297 301 303 305 309 312 315 316
308 309 309 309 302 299 296 303 303 302 285 286 290 294 296 298 291 299 299 298 296 293 294 293 297 295 294 293 295 290 296 295 293 292 287 295 287 294 299 300 303 306 309 312 315
307 308 309 308 297 296 301 304 304 300 273 287 292 301 298 292 293 297 301 297 289 293 294 292 293 292 292 293 296 292 297 295 295 292 290 290 288 293 296 297 301 305 307 311 315
307 308 307 306 301 301 302 303 303 284 273 284 294 294 292 294 294 299 297 300 297 291 293 293 297 296 295 297 297 298 295 294 293 291 285 289 290 291 296 299 301 304 306 309 312
306 307 306 306 298 303 303 299 283 277 287 284 286 290 289 291 292 294 292 290 288 284 284 290 292 296 298 293 297 296 292 285 284 284 283 293 290 293 299 300 302 304 306 307 312
306 306 304 306 302 302 299 288 277 283 283 289 289 289 286 290 291 291 290 288 292 290 285 284 282 292 297 295 292 293 292 286 280 282 286 291 288 293 302 304 304 305 306 306 310
305 301 301 304 304 302 292 278 280 284 287 287 288 285 285 289 290 291 289 288 291 292 285 284 284 293 295 298 297 292 289 295 288 289 287 290 294 299 302 301 302 303 303 305 308
299 297 297 305 305 298 287 281 283 288 289 289 282 287 283 285 287 288 288 292 291 295 294 291 285 293 294 296 298 296 297 288 290 281 281 287 289 291 297 299 301 303 304 305 308
297 291 299 306 303 292 281 283 284 288 288 286 285 284 285 285 286 287 288 292 294 295 296 292 290 290 293 291 290 291 291 293 293 290 284 283 288 299 300 301 302 303 304 304 308
294 285 301 304 288 286 284 286 289 287 290 287 288 287 285 286 285 286 287 290 298 297 292 295 290 285 288 295 296 295 292 293 289 287 289 289 289 300 302 303 302 303 303 303 307
289 289 301 300 282 283 288 287 288 286 287 287 286 288 289 285 282 286 289 295 297 295 291 293 290 283 285 290 293 291 294 294 294 293 290 288 290 301 301 302 304 303 306 305 305
289 283 290 294 291 287 284 285 285 290 287 288 288 289 287 285 288 285 286 291 293 292 299 296 289 287 283 286 290 289 292 294 294 288 289 290 293 298 300 301 304 304 305 306 304
289 284 289 283 285 287 288 287 284 283 288 288 285 286 285 282 283 284 287 288 291 295 298 295 285 288 290 291 292 291 291 293 292 293 290 292 293 297 301 302 304 303 304 304 304
284 286 289 287 289 287 287 285 285 286 285 284 284 286 287 283 285 283 286 287 286 290 289 293 286 288 286 291 292 289 292 292 293 293 293 293 293 301 303 304 303 304 303 304 305
294 293 292 288 287 286 285 286 286 288 289 289 287 286 284 287 290 291 291 290 289 287 286 287 287 286 283 289 288 285 290 292 293 295 295 291 297 302 301 301 303 303 303 303 305

GFSSW_sfc_thetae_084.txt.gz
Theta_e
314 313 313 314 315 314 315 315 314 313 312 312 313 313 314 315 313 312 307 311 315 322 321 318 316 313 313 310 311 311 301 298 300 299 301 306 303 308 312 311 314 318 318 324 327
311 311 311 312 313 314 314 314 314 314 314 314 314 314 314 314 311 306 315 320 322 325 315 312 310 311 307 307 308 305 301 301 304 304 302 304 305 306 306 308 309 314 322 325 326
312 312 312 312 312 311 313 313 313 312 313 314 314 314 313 313 305 302 324 326 326 324 314 315 313 309 305 306 305 304 300 305 304 305 306 305 305 308 306 305 309 309 313 324 324
311 311 311 312 312 312 313 312 311 311 311 311 312 313 313 313 294 312 321 326 325 321 312 310 308 304 303 302 306 300 304 304 305 305 305 304 307 305 308 309 312 315 317 322 323
311 311 311 311 311 312 313 312 312 311 311 311 311 312 310 301 299 310 321 322 322 316 310 309 307 305 301 303 304 302 303 305 306 306 306 306 304 305 306 310 313 317 319 320 322
310 311 311 311 311 310 312 312 311 311 311 311 310 311 305 295 305 310 312 314 313 315 313 309 307 309 305 304 303 305 305 305 306 306 305 303 304 306 307 311 312 315 317 320 322
311 311 312 311 311 311 311 311 311 311 311 311 311 308 301 299 306 311 309 310 313 311 307 310 310 305 306 303 307 305 301 304 305 305 304 306 301 302 309 312 312 315 317 319 322
310 311 311 312 312 312 311 311 311 311 311 311 311 307 297 307 311 307 308 306 307 309 307 310 310 307 305 307 304 300 302 297 303 303 303 303 297 304 309 311 311 314 317 319 321
309 311 311 311 311 311 311 311 310 311 311 310 307 304 295 308 304 308 307 302 306 306 305 306 308 304 304 299 297 299 294 298 300 304 303 302 299 305 310 309 309 313 317 319 320
309 310 311 311 311 311 310 310 309 308 310 309 307 298 301 296 305 310 313 312 307 305 300 300 303 300 300 297 289 293 296 298 298 302 301 300 300 304 308 308 310 312 316 318 318
308 310 311 311 311 310 309 306 301 300 302 298 298 297 298 305 308 307 313 311 307 302 293 298 296 293 297 298 299 299 297 297 301 301 299 299 300 302 306 308 309 312 314 317 318
307 309 310 310 310 310 308 299 299 300 292 300 299 299 302 304 296 301 311 303 302 297 297 296 293 298 299 300 299 298 296 296 300 301 299 300 300 302 304 308 309 311 314 316 319
307 308 309 310 310 308 304 300 307 306 292 296 300 298 299 300 295 296 304 303 299 296 295 293 296 299 299 298 296 297 296 296 296 300 301 299 297 300 303 307 309 312 314 316 318
307 307 308 308 304 306 303 306 308 306 288 291 293 298 299 299 293 300 301 302 300 295 296 295 298 297 296 295 297 293 299 298 296 295 292 298 290 298 302 304 307 310 314 315 318
306 306 307 307 306 301 304 307 306 304 278 289 294 304 300 295 295 298 301 297 293 296 296 294 295 294 294 296 298 295 300 297 297 296 296 296 292 297 300 300 304 308 311 316 318
305 305 306 306 307 306 309 309 304 286 277 287 296 295 293 294 295 300 297 299 297 290 293 295 300 298 296 298 299 300 298 298 297 296 289 294 293 294 299 302 305 307 310 313 317
305 305 305 308 300 309 310 302 287 280 289 287 290 293 291 292 295 295 293 291 290 285 284 288 292 297 299 295 299 298 295 289 288 288 287 295 292 295 302 305 306 307 309 313 316
305 305 305 307 310 306 305 292 279 285 286 291 291 291 288 292 294 294 293 290 294 292 289 284 283 289 294 294 293 295 295 291 284 286 290 295 290 296 305 307 309 310 311 312 315
304 303 302 306 308 307 292 282 282 286 289 289 290 287 288 291 293 293 292 292 294 294 288 287 286 295 296 297 296 295 292 299 292 293 289 293 297 302 305 306 307 308 310 311 313
299 298 299 307 310 300 288 282 287 291 291 291 285 288 285 288 288 290 292 294 293 298 300 292 287 294 295 298 298 296 299 291 292 284 283 290 293 295 299 303 305 307 309 312 312
298 290 300 307 307 292 283 284 288 292 291 289 287 286 287 287 288 288 289 293 296 296 300 296 292 292 296 293 291 293 293 294 295 292 287 286 292 302 302 304 305 308 310 310 312
294 285 302 307 287 287 285 288 291 290 292 290 290 289 288 288 287 287 287 291 297 297 292 297 294 288 290 297 298 297 295 295 290 289 293 291 292 305 305 307 307 308 310 309 313
289 289 302 301 283 284 288 289 291 289 289 289 288 290 291 288 285 288 290 295 296 295 293 295 291 287 288 293 296 293 295 296 296 295 291 290 293 304 306 306 308 309 310 311 310
290 284 292 294 292 289 287 285 287 292 290 291 290 291 290 288 291 287 288 292 296 295 298 296 290 288 285 289 294 291 294 295 295 291 290 292 294 300 303 304 306 308 310 311 311
289 285 291 284 286 286 289 288 285 286 290 291 288 289 288 285 287 287 290 292 294 296 296 295 287 289 290 292 292 292 293 294 293 295 292 294 295 299 302 304 306 308 309 309 310
285 286 292 289 290 287 287 286 286 288 289 287 287 289 290 287 288 286 289 290 289 292 291 293 288 290 288 292 293 291 293 295 295 295 296 296 296 304 306 307 307 307 308 308 309
293 295 292 289 289 286 286 289 289 291 291 292 291 289 288 290 293 294 294 293 293 290 290 289 288 285 284 291 291 287 293 295 296 298 297 293 299 304 303 304 305 307 308 308 310

GFSSW_sfc_thetae_087.txt.gz
Theta_e
312 312 312 312 312 312 313 314 314 313 313 313 314 315 315 315 313 311 307 312 316 323 322 318 319 317 315 312 313 313 302 300 303 303 304 308 306 310 312 310 312 315 316 324 330
313 313 313 313 313 313 312 312 312 312 312 312 313 314 314 314 310 307 319 324 324 323 315 314 313 314 310 310 311 307 303 303 308 308 305 306 307 308 308 308 310 312 317 323 328
311 311 312 312 312 312 313 313 312 312 312 311 312 313 313 313 307 308 320 325 327 323 316 316 315 313 308 310 308 307 302 307 308 308 308 306 307 310 307 305 309 309 313 317 325
310 311 311 311 311 311 312 313 312 312 312 312 312 312 313 311 296 314 322 324 325 320 317 313 313 309 306 305 309 303 307 307 308 309 307 305 308 306 308 309 313 313 315 317 318
311 311 310 311 311 311 312 312 311 311 311 312 312 312 310 303 304 312 318 323 321 319 313 310 309 308 305 306 307 305 306 307 308 308 307 308 306 306 307 311 313 313 313 316 319
311 311 311 311 311 311 312 312 312 311 311 311 312 311 305 297 309 309 310 311 312 316 313 312 310 311 307 306 305 307 306 306 308 308 308 306 306 307 308 311 311 312 313 316 319
311 311 311 311 311 312 312 312 312 312 311 311 311 310 302 300 310 311 311 309 313 312 311 315 314 309 309 305 309 307 303 305 306 307 306 308 303 304 310 311 309 311 314 318 320
309 310 311 311 312 312 312 312 311 312 311 311 311 310 299 309 311 309 310 307 311 314 312 314 314 310 308 309 306 302 303 298 305 308 308 307 299 307 311 309 308 312 315 318 320
308 309 310 311 311 311 311 311 311 312 311 311 309 306 298 309 304 308 308 304 305 307 308 307 307 306 307 301 299 301 295 298 301 309 306 304 301 308 310 309 309 311 314 318 320
308 309 310 311 311 310 310 310 311 309 310 312 309 301 304 298 304 310 316 306 303 305 302 300 299 298 298 298 292 294 295 298 299 306 307 303 303 307 309 309 310 311 314 317 320
307 307 309 310 310 310 309 309 303 304 306 301 301 301 301 305 308 304 314 312 311 307 296 298 293 293 297 298 299 299 298 298 303 307 303 302 303 305 308 308 308 310 312 315 319
306 307 308 309 309 310 310 303 302 302 295 302 301 301 304 305 298 302 310 304 304 299 302 297 291 298 301 299 298 298 297 297 301 305 303 301 302 305 308 308 308 309 312 314 318
305 306 307 308 309 308 307 303 309 308 296 297 302 301 302 303 298 299 304 305 302 299 298 296 298 300 298 296 295 296 296 297 297 302 304 301 299 302 307 309 309 309 312 313 316
305 305 307 307 303 307 305 308 310 309 291 293 296 299 301 301 296 304 304 302 300 296 297 298 301 299 298 296 297 293 300 299 298 297 293 302 292 301 305 305 307 308 311 313 315
304 305 306 306 303 303 305 310 310 305 279 294 295 306 303 297 298 299 305 299 295 296 297 295 297 296 295 297 298 296 301 298 299 297 296 297 294 299 304 303 305 309 311 314 316
304 304 305 304 306 307 309 311 307 288 278 289 297 296 296 298 297 301 298 300 299 294 297 297 303 299 298 299 300 301 298 298 298 296 290 296 296 297 301 303 306 309 310 312 315
304 304 303 304 301 312 312 305 287 281 291 289 293 296 295 295 296 298 294 292 291 285 287 292 293 299 300 295 299 297 294 289 288 289 288 298 296 299 304 306 307 308 310 312 315
304 304 304 305 307 310 307 292 280 287 289 294 292 294 291 294 296 296 295 293 297 294 291 286 285 291 298 296 295 295 294 288 284 288 292 299 293 298 306 308 309 310 311 313 315
303 302 302 306 310 309 295 282 284 288 292 290 292 290 290 293 294 295 295 295 296 297 290 289 289 297 294 296 296 295 292 297 292 295 291 295 299 304 306 307 308 309 310 311 313
300 298 299 308 310 303 288 283 288 293 293 292 288 291 288 291 291 292 294 296 295 299 301 295 289 295 295 298 296 293 297 289 292 285 284 291 293 295 301 304 307 308 309 312 313
298 291 300 308 308 293 283 286 289 294 293 290 290 289 290 289 290 289 290 296 297 297 302 298 294 292 295 293 292 292 291 294 294 292 286 286 292 304 303 306 306 308 310 312 314
295 286 303 308 289 290 284 289 292 293 294 292 292 291 290 290 289 289 289 293 298 298 294 299 296 289 291 298 300 298 295 294 289 289 293 292 292 305 306 307 309 309 311 312 315
290 291 303 304 284 286 289 288 292 290 291 290 289 291 292 289 286 290 291 296 297 295 293 295 293 287 289 293 297 294 296 297 296 295 291 290 292 306 306 308 308 309 311 312 313
291 285 293 296 295 289 287 287 287 293 292 292 291 292 290 289 292 289 290 294 296 296 296 296 290 288 285 289 295 292 294 296 295 291 291 292 295 300 303 305 306 308 311 312 312
290 287 292 285 288 290 289 288 287 287 292 293 290 291 289 286 288 289 292 293 295 298 296 294 287 289 290 291 292 293 293 294 293 294 291 294 295 299 302 304 307 309 310 310 310
285 286 292 290 291 289 288 287 286 288 290 289 289 291 291 288 289 287 291 292 291 295 294 295 288 291 289 292 292 290 293 294 295 295 295 296 296 303 305 307 307 306 308 309 310
295 296 293 289 289 287 288 289 288 291 292 293 292 290 289 291 294 296 296 296 295 292 291 291 289 287 284 290 291 287 292 294 295 298 297 293 298 303 303 305 306 307 308 308 310

GFSSW_sfc_thetae_090.txt.gz
Theta_e
314 314 313 313 313 313 313 313 313 312 312 312 312 313 313 314 312 309 304 312 318 322 316 319 316 316 316 312 312 312 301 297 300 302 304 309 305 310 312 308 310 312 313 322 331
312 312 312 312 312 312 313 313 313 313 313 313 313 314 314 313 307 305 317 323 323 322 310 307 310 313 310 308 309 305 300 300 306 307 306 307 306 307 307 307 308 310 315 321 328
310 311 311 311 311 312 313 313 312 311 311 312 313 314 313 312 305 308 323 325 325 322 310 309 312 312 307 308 307 305 301 305 306 309 309 307 306 308 306 304 308 308 311 316 324
310 310 310 310 311 311 312 312 312 311 311 311 311 312 313 308 294 314 326 326 326 322 314 308 309 307 305 304 308 302 306 306 307 309 307 305 308 305 306 307 311 312 315 315 315
311 310 310 310 311 311 313 313 312 312 311 312 311 312 307 301 302 312 325 324 317 315 312 310 307 307 303 306 307 304 305 307 308 308 307 307 305 305 306 310 313 312 312 312 314
311 311 310 310 310 311 312 313 313 313 312 312 312 311 303 293 308 311 309 309 310 313 313 312 308 310 306 305 305 307 306 306 307 307 307 305 305 307 307 312 310 310 309 310 312
310 310 309 309 310 311 312 312 312 312 312 312 312 308 300 297 308 309 309 309 309 310 308 313 313 309 309 305 309 307 303 305 305 306 305 307 303 303 309 311 309 310 310 311 313
309 310 309 310 310 311 311 311 311 311 312 312 312 307 297 308 310 308 308 307 308 309 311 312 313 310 308 309 306 302 302 297 303 305 306 306 298 306 310 310 309 309 309 311 314
308 309 309 310 310 310 310 310 310 311 312 313 307 304 297 311 305 308 308 303 306 306 308 311 308 305 306 300 297 299 294 297 300 306 305 305 301 306 310 309 307 308 309 312 316
307 308 308 309 310 310 309 309 310 311 311 311 308 301 304 301 304 307 312 312 303 303 301 301 299 295 296 296 290 293 295 297 297 302 304 303 302 305 308 308 308 309 310 312 315
307 307 307 308 309 309 307 306 303 302 306 301 302 300 303 306 308 305 307 309 303 299 294 297 292 289 293 296 297 297 296 296 299 304 302 302 303 304 307 309 308 309 310 311 314
306 306 306 307 308 309 306 302 302 302 294 301 301 302 305 305 298 302 307 304 303 298 301 296 290 295 296 297 297 296 294 294 298 302 301 301 301 304 306 307 308 308 308 311 313
306 305 306 307 308 305 303 305 308 308 295 296 300 299 300 302 297 298 303 300 299 298 298 295 297 298 296 293 293 296 294 294 294 300 302 300 298 301 305 307 309 310 311 310 313
306 305 305 305 301 305 304 308 310 309 289 291 296 299 302 302 297 305 305 300 297 295 298 298 300 298 297 295 295 292 298 297 296 294 290 300 290 299 303 305 307 309 310 310 312
306 304 304 304 301 301 304 309 309 305 277 296 296 306 303 297 299 299 305 300 294 297 297 294 296 295 294 295 298 294 299 297 297 294 294 294 292 296 302 301 304 308 309 310 314
304 304 304 301 302 304 307 309 305 286 277 290 297 295 296 298 297 302 301 302 299 294 295 296 301 299 298 299 299 301 297 297 296 294 286 293 293 293 297 302 306 308 309 311 313
304 304 302 302 297 310 312 303 286 279 291 288 292 295 295 295 295 296 296 293 289 285 286 291 293 297 300 295 298 297 294 286 284 284 285 295 293 296 302 305 307 308 309 313 313
304 304 303 302 304 307 305 291 280 287 288 293 293 295 292 294 296 295 294 291 294 292 288 287 284 293 298 296 293 294 293 287 280 283 287 296 291 296 305 307 309 309 311 313 313
303 300 300 303 307 307 294 280 282 287 291 290 292 289 290 293 293 295 294 294 296 296 289 289 288 296 296 296 297 294 290 296 290 291 287 291 296 302 306 305 307 308 309 310 313
297 297 298 307 310 302 287 282 286 291 292 292 286 290 287 290 290 293 292 296 296 299 301 294 288 296 295 295 296 294 298 289 290 281 280 287 291 293 301 303 306 307 309 311 312
295 291 299 306 308 293 281 284 288 292 293 290 289 288 290 289 291 291 292 294 298 297 299 299 293 291 295 290 289 290 288 290 290 289 284 283 289 302 302 304 306 308 310 312 313
294 285 302 307 289 290 285 287 291 290 293 290 292 291 289 290 289 289 289 294 298 298 293 297 294 288 291 297 298 296 290 290 285 286 291 289 288 302 304 306 309 308 311 313 314
290 290 302 303 284 285 288 288 289 289 290 290 290 291 291 288 286 289 291 297 297 295 291 293 290 285 288 292 296 293 295 295 293 292 288 286 290 302 306 305 308 308 311 312 314
291 284 291 296 293 288 286 286 286 291 290 291 291 293 290 287 290 288 290 294 297 296 296 295 289 286 283 286 292 290 294 294 294 289 290 290 292 297 301 302 304 307 311 312 312
291 286 290 285 287 288 289 288 286 286 290 292 290 290 289 285 287 287 290 292 295 297 296 293 286 288 289 289 290 289 290 293 292 293 289 292 293 297 300 302 304 307 308 310 310
286 286 290 288 290 288 287 286 285 287 289 288 288 291 290 287 289 287 290 291 291 294 293 295 288 290 287 290 290 288 290 291 292 293 293 294 294 301 303 304 304 307 308 307 309
294 294 290 287 287 286 287 288 287 289 290 291 291 290 289 291 294 295 295 295 295 292 291 291 289 287 283 289 288 285 290 291 291 294 294 291 297 302 302 302 303 306 308 308 309

GFSSW_sfc_thetae_093.txt.gz
Theta_e
313 312 312 312 312 312 312 313 314 312 312 312 312 313 313 315 313 305 300 308 312 324 320 311 311 310 309 305 306 301 292 290 293 294 298 304 301 306 307 303 304 308 306 319 328
311 311 311 311 312 313 313 313 313 312 312 312 312 312 313 313 306 302 312 325 324 324 307 304 302 308 303 301 302 299 291 294 299 300 301 303 300 300 299 300 302 306 310 326 327
310 310 310 310 311 312 313 313 313 312 312 312 313 313 313 311 301 303 324 324 323 321 306 304 304 302 302 303 302 298 295 300 301 303 304 300 300 302 296 295 303 304 306 323 322
310 310 310 310 310 311 312 313 313 312 312 312 312 313 312 306 290 308 324 326 326 320 312 306 303 297 298 299 303 297 301 302 302 304 304 300 300 300 298 300 305 305 308 319 319
311 310 309 310 310 310 311 312 312 312 312 312 313 313 306 297 298 311 325 324 319 317 309 307 301 300 297 301 302 300 302 304 304 303 302 303 301 300 300 305 308 308 307 305 311
311 311 310 309 309 309 310 311 312 312 312 312 312 312 301 290 303 306 308 310 313 308 308 308 305 306 302 301 300 303 303 303 303 302 303 302 300 299 303 307 307 307 304 304 304
311 310 310 308 308 309 310 311 311 311 311 311 312 309 298 293 303 303 304 303 304 305 301 306 310 304 303 300 304 303 299 301 302 301 299 302 297 298 304 306 305 306 306 304 304
310 310 309 309 309 309 310 310 310 310 310 311 312 305 293 305 304 304 304 303 305 304 303 306 307 304 303 304 303 298 297 292 298 301 302 300 294 301 306 305 304 305 305 304 304
310 309 309 309 309 309 309 310 309 310 310 311 305 300 294 310 303 306 305 302 303 303 303 305 304 299 301 295 292 293 289 292 295 301 301 300 296 302 306 306 305 304 304 302 303
309 309 309 308 308 308 308 308 308 309 308 309 306 298 302 300 305 305 305 305 300 298 298 296 294 290 291 290 285 288 289 290 291 297 300 298 298 302 304 303 302 302 302 302 304
308 308 308 308 308 308 305 299 297 296 301 298 299 297 300 306 308 303 305 303 303 297 289 292 286 284 287 290 293 293 292 291 294 297 297 296 296 299 303 302 300 301 302 302 304
308 308 307 306 307 307 301 295 300 298 291 299 299 299 304 306 299 302 305 298 301 289 292 289 286 290 292 292 291 290 289 289 293 297 297 295 295 299 302 301 302 301 301 302 303
307 307 306 306 307 301 296 298 307 304 291 293 297 296 298 300 296 296 298 296 295 295 294 289 293 296 292 290 288 288 288 290 291 294 295 295 293 296 301 303 304 304 304 303 305
306 306 305 306 299 299 300 305 306 303 283 288 293 296 298 299 294 300 300 296 294 290 294 294 298 297 293 290 291 285 291 291 293 291 285 296 284 294 298 299 303 304 304 304 302
306 305 305 304 295 293 300 304 306 300 272 292 295 304 300 295 297 297 302 297 291 291 293 291 293 292 292 292 294 290 293 292 294 290 289 291 288 290 297 297 301 302 304 305 303
305 305 305 299 296 296 301 304 300 283 273 288 295 293 293 295 295 298 297 299 297 291 292 291 295 293 293 296 296 297 295 295 293 292 283 289 289 287 293 297 301 304 305 304 303
305 304 301 299 290 301 302 298 281 277 289 287 290 293 293 292 293 294 294 291 285 282 282 287 289 292 295 290 295 293 290 282 281 282 280 292 289 290 297 301 302 303 305 304 306
304 304 301 299 298 299 299 289 276 285 285 292 290 292 289 292 292 292 291 287 291 288 283 281 280 288 293 291 290 292 291 283 278 280 284 292 287 293 302 304 306 306 304 305 305
303 295 295 297 299 299 291 279 279 284 289 287 289 287 287 292 291 291 289 289 291 290 284 285 285 294 293 293 295 291 288 294 288 289 285 288 291 297 302 304 305 303 303 303 306
293 292 292 298 299 294 286 280 283 288 289 289 283 289 284 287 288 287 290 294 294 297 295 292 285 294 295 294 295 292 296 287 288 279 277 284 287 289 296 301 303 303 302 303 307
291 285 292 299 301 288 279 280 284 290 290 287 286 285 287 286 288 288 289 294 296 297 298 295 290 290 295 288 287 288 288 291 289 287 280 280 285 298 299 301 302 304 304 305 305
289 280 295 299 284 284 280 285 289 287 290 288 290 288 288 287 286 287 287 292 297 295 291 291 291 286 289 296 297 291 289 288 282 282 285 285 285 302 300 303 304 305 306 307 306
286 284 295 298 275 279 285 286 288 286 287 288 288 290 291 286 283 286 289 296 297 294 289 290 286 282 285 290 295 292 292 291 289 288 283 281 285 299 300 303 305 305 306 308 308
287 276 284 290 289 286 284 284 284 289 287 288 288 290 288 287 288 286 287 294 296 294 296 294 287 284 280 284 288 286 289 292 291 285 284 285 287 293 297 300 304 305 306 305 307
285 282 287 278 282 286 286 286 284 284 289 289 287 287 286 284 286 284 289 292 294 296 295 291 283 286 287 289 289 288 287 288 287 291 287 289 290 294 297 298 300 303 304 305 306
284 283 287 285 287 286 285 283 284 286 287 286 286 288 288 285 287 285 288 289 289 293 292 295 286 288 286 290 290 287 289 289 289 289 290 291 290 298 301 302 304 305 304 304 305
291 291 287 284 284 283 283 285 286 287 288 289 289 287 286 289 292 292 292 292 292 290 288 289 287 283 281 288 287 282 287 289 290 291 290 286 294 300 300 302 303 304 307 305 306